CAPE
94 215 896 405 811 665 605 575 812 1590 1728 1761 1853 1695 1694 1830 1754 1662 1713 1190 1744 1192 1239 1362 1612 1641 1629 1662 1605 1686 1824 1832 1806 1849 1856 2110 1969 2127 2118 1740 1615 1755 1912
220 497 1063 973 955 745 708 997 1523 1593 1324 1751 1872 1731 1844 1777 1782 1291 1566 1129 1387 1573 1550 1529 1630 1589 1659 1845 1839 1554 1715 2222 2496 2153 2011 2034 1957 2007 1911 2136 1949 2026 2293
481 793 901 1213 1152 1073 1250 1538 1577 1027 1087 1843 1800 1988 1820 1715 1742 1599 1782 1719 1758 1398 1313 1393 1480 1390 1465 1296 1170 1620 1842 1884 1724 1567 1631 961 1406 1645 1430 1554 1158 1530 1568
588 904 1059 1649 1301 1349 1668 1820 1982 1927 1978 2023 2086 1792 1662 1781 1659 1673 1774 1846 1968 1945 1717 1761 1455 1555 1651 1653 1723 1576 1809 1853 1689 1539 893 1098 1129 1313 1305 1431 1474 1426 1223
779 945 1246 1628 1639 1462 1621 1958 1955 1766 2027 1990 2022 1879 1751 1558 1793 1888 1659 1786 1888 1884 1798 1589 1519 1533 1510 1428 1327 1449 1765 1776 1525 846 1015 1323 1701 2267 2304 2241 1777 2145 2368
1021 1141 1351 1705 1633 1967 1457 2002 2086 2022 1957 2026 1952 1899 1830 1635 1725 2027 2182 2131 2255 2242 2084 1732 1712 1690 1497 1448 1393 1453 1566 1532 1226 1060 1591 1976 1824 1941 2222 2421 2234 2047 1833
1097 1386 1428 1903 2011 2050 2108 2126 2080 2040 1970 1995 2003 2003 1993 2079 2130 2177 2147 2126 2259 2369 2018 1775 1746 1628 1371 1330 1543 1799 1973 1797 981 1124 1227 1288 1612 1977 1858 1500 1134 906 820
1430 1467 1534 2030 2034 2013 2022 1981 2036 1910 1817 1819 2022 1947 1927 2128 2201 2088 2056 2109 2199 1999 1764 1648 1609 1427 1633 1279 998 2949 2414 1693 1004 900 1028 1191 1875 1510 1087 927 922 953 979
1558 997 1145 1446 1758 2102 2094 2019 1984 1800 1766 1959 1945 1951 1847 2153 2032 2115 2158 2212 2036 1750 1512 1503 1449 1352 1042 986 1096 1931 1884 1251 340 423 649 816 1579 1037 1003 1083 1166 1196 1456
1237 1144 1195 1361 1500 1237 1613 1829 1916 2022 1942 1922 1739 2011 2152 2346 2187 2053 2396 1524 1063 1192 1208 1159 1061 1075 966 747 768 1317 2060 1585 157 141 398 459 1390 1273 1290 1205 1361 1501 1567
1111 1048 1077 1013 1113 1205 1307 1655 1810 2022 1996 1817 2025 2137 2264 1214 1514 1572 2073 1806 1653 1363 1144 994 918 793 843 1053 1190 1159 696 34 123 248 371 1365 1724 1441 1312 1372 1416 1391 1746
860 936 910 960 1127 1109 1556 1316 1243 1560 1305 1081 1098 1491 856 712 871 1194 1866 1935 1778 1829 1864 1896 1849 1502 1024 224 10 579 267 0 32 33 136 1549 1472 1493 1488 1495 1555 1748 1980
769 1011 725 847 989 911 832 955 886 865 815 740 825 977 589 631 711 806 752 759 924 1536 991 1095 1206 1345 1393 1049 762 217 317 132 0 0 119 1743 1502 1599 1709 1701 1777 2057 2422
599 748 681 605 624 547 647 947 905 851 624 576 594 652 544 408 547 376 392 662 565 455 676 523 526 697 752 687 751 851 362 28 0 0 4 1539 2029 1526 2027 2134 2234 2525 2861
509 490 640 280 247 288 668 748 712 652 665 533 420 518 475 321 419 95 162 116 230 288 244 332 471 570 626 658 627 652 616 0 0 0 0 673 2105 2008 1995 2478 2665 2828 2941
345 157 238 260 302 301 549 484 467 445 369 133 236 489 546 221 198 402 161 148 198 202 236 313 425 298 217 53 0 165 273 0 0 0 0 0 798 2677 2141 2072 2306 2622 2685
197 31 179 273 421 507 407 305 276 425 237 51 167 701 412 240 775 308 285 102 236 683 556 362 281 348 394 39 1 0 12 0 0 0 0 0 1 339 714 1493 3049 3270 2977
19 9 119 348 401 271 151 43 183 184 101 19 338 682 341 442 761 413 755 1008 748 441 567 714 584 427 0 0 0 0 0 0 0 0 7 35 32 142 259 469 878 2456 2495
0 3 67 8 270 67 8 0 28 175 177 188 404 515 250 838 612 164 80 376 138 34 70 225 408 543 506 55 0 0 0 0 0 0 33 97 419 494 499 805 1690 1753 2467
4 8 30 0 200 15 0 0 0 60 232 387 347 159 1008 810 319 0 0 33 15 3 226 340 704 501 73 20 25 8 4 0 0 0 0 38 307 652 822 674 662 1152 1587
33 22 34 46 129 1 5 29 41 71 381 262 195 805 796 689 457 236 0 0 0 120 125 379 808 1089 681 154 24 14 0 0 0 0 0 0 124 330 674 1010 761 498 568
92 72 111 238 120 0 22 319 170 12 512 314 412 299 393 272 24 226 0 0 0 35 97 374 74 793 85 176 520 129 88 42 0 0 0 0 0 30 889 1119 1028 649 429
96 67 135 74 160 217 111 237 134 539 778 728 233 25 0 310 300 885 0 0 0 7 73 204 0 10 229 554 296 238 127 150 0 0 0 0 0 10 6 912 1085 502 160
134 117 163 25 117 339 186 317 275 383 754 619 471 138 24 15 943 682 184 10 0 0 20 484 0 0 282 707 269 0 0 0 0 0 0 1 10 0 0 65 9 27 666
190 181 146 40 84 320 283 273 363 247 375 372 397 327 185 234 798 974 408 93 0 0 0 181 607 291 137 111 739 15 0 0 0 0 0 0 18 0 0 0 0 511 355
169 236 188 121 139 179 154 256 264 355 445 239 348 844 341 205 474 771 461 163 30 0 0 0 182 792 98 0 244 967 183 289 86 0 0 0 0 0 32 3 0 59 124
CIN
-28 -28 -3 -5 -1 -0 -4 -17 -15 -0 -0 -0 -0 -0 -0 -0 -0 -0 -0 -0 -0 -0 -0 -0 -0 -3 -0 -0 -0 -0 -0 -0 -0 -0 -0 -0 -0 -0 -1 -0 -1 -1 -1
-31 -17 -3 -3 -3 -1 -3 -5 -0 -0 -0 -0 -0 -0 -0 -0 -0 -0 -0 -0 -0 -0 -0 -0 -0 -0 -0 -0 -0 -0 -0 -0 -0 -0 -0 -0 -0 -0 -0 -0 -3 -3 -2
-20 -4 -2 -0 -0 -7 -3 -2 -2 -1 -4 -0 -0 -0 -0 -0 -0 -0 -0 -0 -0 -0 -0 -0 -0 -0 -0 -0 -2 -0 -0 -0 -0 -0 -1 -25 -3 -0 -0 -0 -6 -0 -0
-26 -7 -3 -0 -0 -2 -0 -1 -0 -0 -0 -0 -0 -0 -0 -0 -0 -0 -0 -0 -0 -0 -0 -0 -0 -0 -0 -0 -0 -0 -0 -0 -0 -2 -36 -14 -7 -1 -3 -2 -1 -3 -12
-18 -11 -3 -0 -0 -2 -0 -0 -0 -0 -0 -0 -0 -0 -0 -0 -0 -0 -0 -0 -0 -0 -0 -0 -0 -0 -1 -1 -6 -4 -0 -1 -0 -57 -34 -23 -7 -0 -0 -0 -0 -0 -0
-12 -12 -3 -0 -2 -0 -0 -0 -0 -0 -0 -0 -0 -0 -0 -0 -0 -0 -0 -0 -0 -0 -0 -2 -0 -4 -2 -6 -5 -4 -7 -15 -31 -52 -19 -6 -9 -0 -0 -0 -0 -0 -0
-9 -8 -5 -0 -0 -0 -0 -0 -0 -0 -0 -0 -0 -0 -0 -0 -0 -0 -0 -0 -0 -0 -0 -0 -5 -8 -13 -12 -11 -9 -7 -16 -88 -67 -58 -63 -31 -6 -20 -51 -78 -96 -97
-4 -5 -3 -0 -0 -0 -0 -0 -0 -0 -0 -0 -0 -0 -0 -0 -0 -0 -0 -1 -0 -0 -0 -4 -15 -26 -16 -19 -40 -2 -3 -19 -97 -117 -109 -101 -46 -76 -113 -127 -120 -110 -92
-3 -13 -8 -4 -2 -0 -0 -0 -0 -0 -2 -0 -0 -0 -0 -0 -0 -0 -0 -0 -0 -0 -4 -14 -25 -29 -38 -40 -39 -13 -14 -61 -249 -235 -187 -200 -97 -136 -136 -126 -104 -97 -60
-6 -11 -15 -13 -10 -21 -4 -0 -0 -0 -0 -0 -8 -0 -0 -0 -0 -0 -0 -5 -24 -17 -21 -35 -44 -41 -51 -58 -57 -43 -20 -51 -310 -315 -273 -263 -133 -128 -114 -121 -104 -81 -63
-10 -21 -25 -36 -34 -29 -16 -6 -1 -0 -0 -3 -1 -3 -25 -29 -12 -13 -1 -3 -11 -23 -36 -51 -55 -66 -62 -49 -56 -56 -149 -359 -330 -302 -300 -159 -120 -122 -119 -105 -86 -81 -47
-39 -33 -53 -57 -30 -26 -6 -17 -16 -7 -24 -32 -42 -36 -69 -76 -67 -44 -10 -1 -13 -15 -23 -28 -43 -55 -67 -173 -167 -183 -265 -0 -379 -393 -358 -152 -149 -123 -104 -92 -76 -64 -36
-64 -36 -67 -58 -48 -40 -49 -42 -50 -55 -63 -72 -68 -66 -96 -89 -106 -98 -122 -149 -122 -67 -111 -105 -111 -106 -97 -116 -134 -267 -271 -334 -0 -0 -359 -160 -157 -121 -98 -82 -64 -43 -17
-74 -83 -91 -92 -94 -95 -82 -61 -67 -61 -87 -100 -90 -101 -123 -150 -137 -173 -181 -155 -162 -176 -139 -172 -181 -159 -163 -181 -181 -185 -268 -102 -0 -0 -236 -182 -133 -140 -87 -63 -46 -23 -9
-99 -118 -96 -171 -180 -162 -94 -88 -89 -93 -93 -109 -137 -132 -160 -181 -161 -253 -219 -239 -209 -226 -249 -240 -227 -214 -217 -217 -246 -271 -254 -0 -0 -0 -0 -277 -107 -112 -92 -50 -25 -13 -9
-160 -210 -188 -177 -167 -157 -113 -114 -121 -122 -132 -185 -197 -163 -168 -205 -212 -179 -224 -223 -235 -263 -278 -255 -236 -224 -268 -343 -0 -376 -318 -0 -0 -0 -0 -0 -239 -73 -80 -73 -53 -34 -30
-213 -275 -189 -147 -151 -130 -142 -151 -175 -135 -138 -195 -179 -152 -176 -206 -144 -218 -228 -246 -247 -222 -227 -216 -216 -239 -234 -315 -26 -6 -418 -0 -0 -0 -0 -0 -2 -323 -259 -131 -25 -16 -27
-268 -290 -183 -95 -136 -184 -230 -285 -207 -186 -196 -253 -177 -156 -181 -177 -171 -238 -209 -200 -230 -244 -235 -196 -204 -209 -0 -0 -0 -0 -0 -0 -0 -0 -68 -398 -530 -477 -412 -305 -227 -74 -37
-0 -190 -204 -131 -171 -252 -290 -0 -261 -181 -186 -188 -166 -179 -209 -158 -205 -270 -307 -271 -331 -421 -396 -328 -282 -247 -186 -158 -0 -0 -0 -0 -0 -0 -212 -422 -400 -389 -391 -313 -198 -140 -58
-112 -236 -198 -0 -178 -270 -0 -0 -0 -219 -183 -175 -171 -218 -131 -174 -224 -0 -33 -388 -70 -26 -338 -304 -239 -285 -332 -61 -195 -312 -314 -0 -0 -0 -0 -451 -425 -379 -353 -351 -298 -221 -149
-179 -181 -170 -174 -181 -49 -239 -192 -174 -133 -121 -182 -199 -126 -158 -200 -223 -223 -0 -0 -0 -327 -347 -277 -250 -197 -158 -302 -266 -305 -0 -0 -0 -0 -0 -0 -500 -421 -385 -346 -307 -338 -276
-199 -171 -176 -158 -200 -0 -192 -145 -157 -160 -151 -153 -173 -185 -197 -203 -127 -226 -0 -0 -0 -384 -334 -280 -242 -186 -208 -338 -153 -275 -188 -282 -0 -0 -0 -0 -0 -567 -276 -293 -267 -289 -321
-205 -182 -160 -208 -178 -177 -175 -166 -182 -140 -156 -135 -189 -259 -0 -201 -199 -149 -0 -0 -0 -22 -312 -308 -0 -160 -167 -237 -325 -234 -57 -138 -0 -0 -0 -0 -36 -582 -135 -268 -250 -324 -370
-179 -173 -151 -241 -191 -160 -180 -119 -109 -92 -86 -124 -130 -192 -150 -108 -123 -171 -230 -118 -0 -0 -109 -237 -0 -0 -274 -144 -309 -0 -0 -0 -0 -0 -0 -315 -558 -111 -0 -433 -83 -409 -246
-155 -169 -177 -211 -188 -156 -175 -144 -115 -104 -108 -147 -146 -129 -180 -189 -114 -113 -206 -272 -0 -0 -0 -266 -222 -279 -310 -227 -195 -297 -0 -0 -0 -0 -0 -0 -437 -0 -0 -0 -3 -265 -247
-168 -142 -161 -221 -185 -182 -187 -164 -134 -95 -101 -125 -139 -79 -132 -171 -147 -125 -169 -219 -289 -0 -0 -0 -244 -188 -198 -0 -247 -172 -164 -168 -235 -0 -0 -0 -0 -0 -455 -211 -0 -249 -288
Wind_Speed
4 4 10 11 9 9 9 11 12 13 14 14 14 13 14 13 13 12 13 12 14 13 14 14 14 15 16 16 16 17 16 16 16 16 14 16 14 13 13 13 12 9 11
6 5 9 10 8 9 8 10 10 11 13 12 14 13 13 12 13 12 12 13 12 13 14 14 14 14 15 15 14 16 15 15 14 16 14 15 14 13 12 12 10 9 11
6 4 5 7 7 7 9 8 10 12 12 12 13 12 12 11 12 12 11 11 11 12 13 14 14 14 14 15 14 15 14 15 14 15 15 6 6 12 11 11 10 10 9
6 5 5 6 8 8 9 10 12 12 11 12 13 11 11 12 11 11 10 11 11 11 12 12 14 13 14 14 13 14 13 15 13 12 5 4 7 11 11 10 10 10 9
6 5 6 9 11 10 9 10 10 11 12 12 12 10 11 11 10 10 11 10 10 11 12 12 13 12 13 10 10 10 8 2 9 9 5 5 3 8 10 9 8 7 8
6 6 8 10 11 10 10 10 10 10 11 12 11 10 10 11 10 11 11 11 11 12 13 12 11 10 11 10 7 6 3 3 13 6 4 6 3 9 8 8 6 6 6
5 5 6 11 11 10 9 10 9 8 9 10 9 10 9 9 11 10 10 10 10 11 12 10 8 9 8 7 6 5 9 12 6 5 4 4 3 6 6 5 4 4 3
6 5 5 11 12 10 10 9 9 8 9 10 10 11 10 8 9 9 10 9 10 10 10 9 7 6 7 7 8 9 12 10 6 5 4 3 3 4 4 4 3 3 3
6 5 4 5 8 11 10 10 9 9 10 10 10 9 10 7 10 8 8 7 8 8 8 7 5 4 6 6 7 8 9 9 5 3 3 1 2 3 2 2 3 3 4
5 4 5 4 4 4 4 9 8 9 9 8 9 10 9 9 9 8 6 7 6 6 6 5 3 3 3 3 5 6 7 8 4 2 1 2 3 2 0 1 4 6 7
5 4 4 5 4 4 4 4 8 9 8 8 7 10 6 4 4 5 4 5 5 4 4 3 2 0 1 4 4 5 6 3 3 2 1 5 4 4 3 3 4 5 9
8 5 5 5 5 4 2 4 3 2 2 2 2 4 3 4 2 2 2 4 4 3 2 0 1 2 4 2 2 4 2 3 2 3 2 7 7 6 5 5 6 9 10
9 7 5 5 5 5 4 3 1 1 1 2 2 1 2 2 1 1 2 2 3 3 2 3 3 3 4 3 2 1 1 2 3 3 5 10 9 8 7 6 7 10 11
10 8 7 6 5 5 3 3 3 2 1 1 2 3 2 1 1 1 0 1 2 2 3 3 2 3 4 4 4 5 2 2 3 3 5 10 9 9 8 8 8 9 11
9 7 7 7 6 5 4 3 2 1 2 3 4 5 3 2 3 2 3 0 1 3 3 4 3 4 5 5 4 5 5 5 5 3 2 9 9 9 9 10 9 10 11
8 7 5 7 5 5 4 4 3 3 3 2 3 3 5 3 2 3 1 0 2 2 4 3 3 2 4 3 3 5 6 5 5 4 0 2 10 10 10 11 11 10 10
8 7 7 5 5 7 7 5 4 3 2 3 2 3 4 4 2 2 3 1 1 2 3 2 1 1 2 2 1 3 4 5 3 2 1 3 5 7 7 9 10 9 8
6 9 6 9 7 6 6 5 4 3 2 4 3 2 5 6 4 2 3 2 2 3 3 3 2 2 2 3 1 1 3 5 2 2 2 3 4 3 5 2 3 6 7
9 9 7 6 6 6 4 2 3 4 3 2 3 1 5 5 5 4 3 3 3 2 2 2 2 1 1 1 2 3 3 3 3 3 3 3 2 1 3 5 3 4 4
10 9 10 6 7 5 4 2 1 1 3 3 3 4 6 5 5 5 3 3 2 1 1 2 4 1 1 0 2 4 3 3 3 3 3 3 1 3 0 5 3 3 6
8 8 12 11 8 5 2 3 2 3 2 1 3 5 5 5 5 5 4 3 0 2 2 2 2 2 4 2 3 3 4 2 4 3 3 4 5 3 4 2 4 4 2
11 9 7 9 7 6 4 3 2 2 2 2 3 3 4 5 4 3 5 3 3 1 2 3 4 1 2 3 2 3 1 3 2 1 2 3 4 2 3 2 2 4 4
12 13 12 11 8 6 5 3 2 2 3 3 1 2 3 5 5 4 5 4 4 1 1 1 3 4 2 4 4 4 2 4 1 2 3 3 5 3 3 3 4 3 5
13 12 11 9 9 7 8 6 5 3 4 4 5 3 4 6 5 4 4 4 4 1 2 2 3 3 3 1 1 4 4 3 3 3 1 3 2 3 4 2 1 3 4
12 12 9 8 7 7 7 7 6 4 3 2 2 5 4 4 4 5 5 5 4 3 3 2 2 3 2 2 1 1 2 3 2 2 2 3 1 3 1 1 0 4 3
9 10 9 8 8 6 7 7 8 8 6 3 3 3 4 3 4 5 5 5 4 4 5 4 1 3 3 2 1 1 2 2 2 2 1 3 2 3 1 2 1 3 3
Wind_Direction
198 179 169 169 155 140 132 115 107 103 101 103 101 99 97 98 101 97 98 99 95 105 101 104 102 99 97 98 100 101 101 99 94 102 100 95 96 103 101 98 88 93 100
132 171 152 148 143 150 135 119 108 107 103 101 99 98 96 100 101 103 101 107 108 104 103 101 94 91 93 95 99 103 98 92 93 91 94 110 101 99 97 95 99 92 98
138 143 138 126 138 140 134 126 125 116 104 105 101 99 100 101 106 112 107 105 98 99 98 98 101 98 102 103 102 103 99 91 91 92 86 67 79 101 102 98 104 100 101
134 125 124 150 141 145 139 138 124 120 118 107 99 102 107 109 110 115 111 112 108 111 104 101 101 100 98 94 99 98 106 104 90 81 69 84 110 109 112 113 115 118 118
114 134 159 154 135 133 141 122 118 117 113 111 107 116 115 111 113 119 125 120 116 109 107 102 102 105 95 96 97 102 111 94 81 92 81 79 67 118 122 123 109 88 94
133 150 153 137 139 142 135 122 121 112 110 106 114 116 111 119 121 116 114 115 112 112 102 103 109 100 103 99 100 112 128 124 113 101 100 95 66 95 93 90 96 95 91
138 158 144 148 145 139 135 120 107 112 114 118 119 116 120 121 114 116 114 114 110 103 105 112 113 109 100 84 59 36 127 119 104 106 110 98 88 99 95 93 88 84 83
140 141 154 151 148 145 131 119 125 123 123 124 129 124 122 115 115 121 113 112 110 105 111 123 123 109 86 54 42 42 124 121 107 111 108 95 114 101 90 79 69 50 31
133 125 128 134 153 147 143 139 136 133 138 140 130 123 129 125 125 116 112 110 110 115 120 123 123 85 57 39 41 57 129 116 104 116 128 135 126 107 87 49 35 337 338
111 125 129 126 127 130 139 146 137 147 138 140 137 136 135 125 127 122 102 112 106 110 108 108 98 74 67 42 40 52 134 125 118 149 151 184 160 144 145 320 323 330 335
132 150 138 134 125 116 120 166 146 148 148 149 142 140 103 61 73 80 115 119 114 104 100 100 103 168 23 28 29 60 89 113 146 175 193 208 191 210 227 266 291 277 289
161 174 168 145 140 148 135 91 101 108 77 91 73 77 72 67 47 117 180 144 126 120 111 15 340 326 24 63 36 44 91 157 192 197 211 218 211 224 238 263 284 293 302
171 165 173 155 154 158 131 133 144 105 134 109 125 110 91 43 343 26 4 13 19 359 17 0 321 13 343 340 339 246 192 189 210 214 223 223 219 230 243 261 279 291 304
180 178 168 154 155 163 154 156 168 166 168 147 174 193 176 311 264 274 220 295 325 334 311 292 312 309 279 253 242 264 254 206 195 220 246 238 232 239 251 265 278 291 297
175 174 173 160 171 167 161 151 150 213 238 227 231 218 196 219 215 223 239 3 317 281 263 281 306 289 279 279 235 211 224 204 206 218 250 272 268 267 277 287 292 296 298
174 174 174 178 167 169 160 168 179 192 230 227 213 204 204 187 210 266 229 273 286 259 237 235 250 238 271 283 305 196 199 195 204 220 53 291 295 290 290 291 292 295 297
184 168 181 183 165 174 175 180 174 184 181 197 230 190 170 152 162 176 127 166 76 354 231 134 168 23 262 320 313 120 174 195 222 358 322 247 268 282 303 304 306 298 296
162 179 185 195 182 177 171 180 171 188 172 189 191 175 149 166 144 123 105 83 51 54 26 48 32 1 107 127 330 91 49 46 348 238 253 283 254 249 291 287 320 304 306
175 172 182 192 175 176 165 188 180 205 214 225 181 171 163 147 166 134 136 111 71 60 59 55 43 41 313 286 148 94 95 103 80 63 47 17 334 323 232 183 158 94 21
178 182 183 191 172 179 114 103 303 272 267 242 184 191 171 158 152 122 97 86 123 170 64 71 61 357 176 219 47 68 110 100 72 59 28 323 359 341 3 144 113 86 68
166 179 190 187 186 149 140 132 202 229 253 193 166 199 163 162 160 148 121 106 152 94 13 77 77 18 31 43 94 54 54 49 55 53 17 323 326 335 306 139 140 90 65
172 192 190 188 178 170 157 155 167 175 210 160 144 192 161 167 173 169 121 140 150 98 20 67 82 49 7 18 122 82 72 315 332 51 29 309 305 347 320 318 68 91 66
186 189 195 192 180 174 171 119 90 76 40 64 101 218 213 195 195 174 149 161 174 214 133 83 132 140 111 22 42 149 95 233 346 298 225 281 299 6 4 8 73 60 38
194 187 189 193 177 182 174 160 153 172 164 204 179 186 186 205 197 197 170 162 185 187 190 165 209 131 114 133 30 46 50 129 169 346 239 248 305 291 348 340 73 31 55
180 188 188 184 193 185 176 178 161 163 206 190 170 185 194 199 216 199 187 169 197 173 220 220 168 89 97 109 104 114 33 45 80 114 296 321 351 272 202 45 237 85 87
176 185 183 180 193 183 189 181 177 177 184 178 213 196 216 179 205 210 175 200 205 194 203 238 207 164 128 140 161 168 179 166 195 156 169 265 260 267 266 258 170 113 130